User: anonymous   Login
Location: Utrecht
(52.0907°N, 5.1214°E)
Time: 11:47:05
(UTC+02:00)
Language:

CUTE-I - Orbit

View from above orbital plane
View from above orbital plane
View from above satellite
View from above satellite

Ground track
Ground track

The orbit data is extracted from the following two-line orbital elements,

1 27844U 03031E   22179.89205261  .00000138  00000-0  81454-4 0  9994
2 27844  98.6776 187.4053 0011097  71.5333 288.7051 14.22459719985498
Epoch (UTC): 28 June 2022 21:24:33
Eccentricity: 0.0011097
inclination: 98.6776°
perigee height: 809 km
apogee height: 825 km
right ascension of ascending node: 187.4053°
argument of perigee: 71.5333°
revolutions per day: 14.22459719
mean anomaly at epoch: 288.7051°
orbit number at epoch: 98549

The dashed part of the orbit path shows where the satellite is in the earth's shadow,  

DLR